This is the latest recevied weather packets stored in our database for station/object W6SNO-1. If no packets are shown the sender has not sent any weather packets the latest 10 day(s).
| Time | Temp. | Humidity | Pressure | Rain* | Wind** | Luminosity | Snow |
|---|---|---|---|---|---|---|---|
| 1777650365 | 12.78° C | 86% | 1015.3 hPa | 0 mm | - | 58 W/m² | - |
| 1777650061 | 12.22° C | 86% | 1015.3 hPa | 0 mm | - | 58 W/m² | - |
| 1777649759 | 12.78° C | 86% | 1015.3 hPa | 0 mm | - | 58 W/m² | - |
| 1777649456 | 12.78° C | 86% | 1015.4 hPa | 0 mm | - | 62 W/m² | - |
| 1777649152 | 12.78° C | 86% | 1015.1 hPa | 0 mm | - | 86 W/m² | - |
| 1777648850 | 12.78° C | 85% | 1015.1 hPa | 0 mm | - | 109 W/m² | - |
| 1777648546 | 12.22° C | 87% | 1015.3 hPa | 0 mm | - | 131 W/m² | - |
| 1777648244 | 12.22° C | 87% | 1015.4 hPa | 0 mm | - | 106 W/m² | - |
| 1777647944 | 12.22° C | 87% | 1015.3 hPa | 0 mm | - | 106 W/m² | - |
| 1777647641 | 12.22° C | 87% | 1015.4 hPa | 0 mm | - | 98 W/m² | - |
| 1777647337 | 12.22° C | 87% | 1015.2 hPa | 0 mm | - | 82 W/m² | - |
| 1777647036 | 12.22° C | 87% | 1015.2 hPa | 0 mm | - | 82 W/m² | - |
| 1777646731 | 11.67° C | 89% | 1015.3 hPa | 0 mm | - | 69 W/m² | - |
| 1777646426 | 11.67° C | 89% | 1015.4 hPa | 0 mm | - | 69 W/m² | - |
| 1777646123 | 11.67° C | 88% | 1015.2 hPa | 0 mm | - | 65 W/m² | - |
| 1777645820 | 11.67° C | 89% | 1015.3 hPa | 0 mm | - | 47 W/m² | - |
| 1777645518 | 11.67° C | 89% | 1015.1 hPa | 0 mm | - | 47 W/m² | - |
| 1777645213 | 11.67° C | 89% | 1015.2 hPa | 0 mm | - | 45 W/m² | - |
| 1777644909 | 11.67° C | 90% | 1015.2 hPa | 0 mm | - | 38 W/m² | - |
| 1777644608 | 11.11° C | 90% | 1015.1 hPa | 0 mm | - | 32 W/m² | - |
| 1777644303 | 11.11° C | 90% | 1015.3 hPa | 0 mm | - | 31 W/m² | - |
| 1777643999 | 11.11° C | 90% | 1015.2 hPa | 0 mm | - | 25 W/m² | - |
| 1777643696 | 11.11° C | 90% | 1015.2 hPa | 0 mm | - | 20 W/m² | - |
| 1777643394 | 11.11° C | 91% | 1015.3 hPa | 0 mm | - | 17 W/m² | - |
| 1777643090 | 11.67° C | 90% | 1015 hPa | 0 mm | - | 14 W/m² | - |
* Rain latest hour (hover to see other rain measurements)
** Current wind speed in m/s (hover to see current wind gust speed)